Theta_e
340 341 341 341 340 340 340 339 339 339 339 339 338 337 337 338 337 337 337 337 337 337 336 336 336 335 335 335 335 335 334 333 332 332 332 332 331 331 331 331 331 330 330 331 332 333 333 334 334 333 333 333 332 331 330 330 330 331 331 331 330 329 328 328 328 329 331 331 332 332 331 331 331 332 332 332 332 331 330 331 331 331 329 328 328
340 341 339 339 339 339 339 339 339 338 338 338 338 337 337 337 337 337 337 337 337 337 336 336 336 334 334 334 334 334 334 333 332 332 332 332 332 331 331 332 332 332 332 332 332 333 333 333 334 334 335 334 332 331 331 331 332 331 331 331 332 331 331 330 330 331 331 331 331 331 331 330 330 331 332 332 332 332 331 331 331 331 330 328 328
340 339 339 339 339 339 339 339 339 338 338 338 338 338 337 336 337 337 337 337 337 337 336 336 336 335 334 334 334 333 333 333 332 331 331 331 331 331 331 331 332 332 332 332 333 333 333 333 333 335 335 331 328 330 331 330 331 332 332 332 333 333 332 332 331 331 331 331 332 331 331 330 330 330 331 331 331 332 331 331 331 331 330 328 328
338 338 338 339 338 338 338 337 338 338 338 337 337 338 337 337 337 337 337 337 337 336 336 336 335 336 335 334 334 334 333 333 331 330 331 331 330 330 331 331 331 331 330 331 332 333 333 334 334 334 334 330 328 330 330 330 330 331 332 332 333 333 333 331 331 331 331 332 332 332 331 330 330 330 330 330 330 331 331 331 330 330 329 328 328
336 335 336 337 337 337 337 337 336 337 336 335 335 336 337 337 336 336 336 336 336 335 335 336 336 336 336 335 335 335 335 333 332 331 331 331 331 331 331 331 331 330 329 330 331 332 333 333 334 333 333 332 331 331 331 331 330 331 331 332 332 332 332 331 330 330 330 331 332 332 331 330 330 330 329 329 329 329 331 331 330 329 328 328 329
334 332 333 335 335 336 336 336 335 335 335 334 334 335 335 336 335 335 335 335 335 336 336 336 336 337 336 336 335 335 335 335 334 333 333 332 332 331 331 331 331 330 330 331 331 332 332 333 333 333 333 332 332 332 332 332 331 331 331 332 332 332 332 331 330 330 330 331 331 332 332 331 330 330 330 329 329 329 330 331 331 329 328 328 329
330 330 331 331 332 334 333 333 334 334 333 333 333 333 333 334 334 333 333 333 334 335 335 335 335 335 335 335 335 334 334 334 334 334 334 334 333 332 332 331 331 330 330 331 331 332 332 333 333 333 333 332 332 333 333 333 332 332 332 332 331 332 332 332 331 331 331 331 331 332 332 331 331 331 330 330 329 329 329 330 330 330 329 329 329
327 327 328 328 329 332 331 330 331 331 332 333 332 331 332 332 332 331 331 332 332 333 334 334 334 334 334 334 334 334 333 333 333 334 334 334 334 333 332 332 331 330 330 330 331 332 332 332 332 332 332 331 332 332 333 333 332 332 332 332 332 332 332 332 332 332 332 331 331 332 332 332 331 331 331 330 330 329 329 329 329 330 330 330 329
326 326 326 326 327 327 328 329 328 328 330 330 329 329 331 331 330 329 329 329 329 330 332 332 332 332 333 333 333 333 333 332 332 332 332 332 333 333 332 332 332 331 331 331 332 332 332 332 332 332 331 332 332 332 332 332 332 332 331 331 331 332 332 332 332 331 331 331 331 331 331 331 331 331 331 331 330 329 329 328 328 330 331 331 330
324 324 324 324 324 323 325 326 325 325 327 326 326 327 328 327 326 325 325 325 326 327 329 330 330 330 331 331 331 332 331 331 331 331 330 331 331 332 331 331 331 331 331 332 332 332 332 332 332 332 332 332 332 332 332 332 331 331 331 331 331 331 331 331 331 331 331 331 331 331 331 331 331 331 331 331 330 329 329 328 327 328 329 329 329
322 322 321 322 321 321 323 323 323 324 324 323 324 324 324 323 322 322 321 322 323 325 326 328 328 328 329 329 330 330 330 330 329 329 328 329 330 330 330 329 329 329 330 331 331 330 331 331 331 331 331 331 331 331 331 331 331 331 331 331 330 330 330 330 330 331 331 330 331 331 331 331 331 331 331 331 331 330 330 328 327 327 327 327 326
321 321 320 320 320 320 321 322 321 322 322 322 322 321 320 319 319 318 318 319 320 320 322 324 326 327 327 327 327 328 328 327 327 327 327 327 327 327 327 328 329 329 329 329 329 329 329 329 329 329 330 330 330 330 330 330 330 330 330 329 329 329 329 329 330 330 330 330 331 331 331 331 331 331 331 331 331 330 330 329 327 326 327 325 324
320 320 319 319 319 319 319 320 320 320 321 320 320 318 318 318 317 317 317 317 317 318 318 319 322 324 325 325 326 326 325 325 325 325 324 324 324 324 324 325 327 327 327 327 328 328 327 328 328 329 329 329 330 329 329 329 329 329 329 328 328 328 327 327 328 329 329 330 330 330 331 331 331 331 331 331 331 330 329 329 328 327 326 325 323
319 319 319 318 318 318 318 318 319 319 319 318 318 318 318 317 317 317 317 316 316 316 317 317 318 319 321 323 323 324 323 323 322 322 322 322 322 322 322 323 324 325 325 326 326 326 326 327 328 328 328 329 329 328 328 328 328 328 328 328 328 327 326 326 326 327 328 329 330 330 330 331 330 330 330 331 330 330 329 329 328 327 326 325 325
318 318 318 317 317 317 317 317 317 317 317 317 317 317 317 316 317 317 317 316 316 315 316 316 316 316 317 319 320 321 321 321 321 321 321 321 321 322 322 322 322 323 324 324 324 324 325 326 326 327 327 328 328 328 328 327 327 326 326 326 326 326 325 325 325 326 327 328 329 329 329 330 330 330 330 330 330 330 329 329 328 328 327 326 326
318 317 317 317 317 316 316 316 316 316 316 316 316 316 316 316 316 317 316 316 315 315 315 315 314 315 315 316 317 317 318 318 319 319 320 321 321 322 322 322 322 322 323 323 323 324 324 324 324 325 326 327 327 326 325 324 324 324 324 324 324 324 324 324 325 326 327 328 328 329 329 329 330 330 330 330 330 330 329 329 328 328 328 327 327
317 317 316 316 316 316 316 316 315 315 315 315 316 316 315 315 316 316 316 315 315 314 314 313 313 313 313 314 314 315 316 316 317 317 318 319 319 320 320 320 321 321 322 322 322 322 323 323 323 323 324 325 324 323 322 323 323 324 324 324 324 324 324 325 325 326 327 327 328 329 329 329 329 330 330 330 330 330 329 329 328 328 328 328 327
316 316 316 316 316 315 315 315 315 315 315 315 315 315 315 315 315 315 315 315 314 314 313 313 312 312 311 312 312 313 314 315 316 316 316 316 317 317 318 318 319 320 320 321 321 321 322 322 322 323 323 323 322 322 323 324 324 324 324 325 325 325 326 326 325 325 326 327 328 328 329 329 329 329 330 330 330 330 329 328 328 328 328 328 327
316 316 316 316 315 315 315 315 315 315 314 315 314 314 314 314 314 315 314 314 314 313 313 312 312 311 311 311 311 311 312 313 314 313 313 314 314 315 316 317 318 319 319 320 321 321 321 321 321 321 322 321 322 323 324 323 323 323 324 324 325 325 326 326 326 326 326 326 327 327 328 328 328 328 329 330 330 330 329 328 327 327 328 328 327
316 315 315 315 315 314 314 314 314 314 314 314 314 314 314 314 314 314 314 314 313 313 312 312 311 311 310 310 310 310 311 311 311 311 312 313 313 313 315 316 318 319 320 320 321 320 320 320 320 320 320 321 322 324 324 324 324 324 325 326 325 325 325 325 326 326 326 326 327 327 328 328 328 328 328 329 330 329 328 327 326 327 327 328 328
315 315 315 314 314 313 313 313 313 313 314 314 313 313 313 313 313 313 313 313 312 312 312 311 311 310 310 310 309 309 309 310 311 311 311 311 311 312 314 315 317 318 319 320 320 320 319 319 319 319 319 320 322 323 324 324 324 324 325 326 326 326 325 325 325 326 326 326 327 327 328 328 329 329 329 330 330 328 328 327 326 326 327 327 327
314 314 313 313 312 312 312 311 311 312 313 313 313 313 312 312 312 312 312 311 311 312 311 311 311 310 310 309 309 308 308 309 310 311 311 310 310 311 312 314 315 316 317 318 319 319 319 319 318 318 318 319 320 321 321 322 322 323 323 324 325 325 325 325 325 325 326 326 326 327 328 328 329 329 329 330 330 328 327 327 327 327 327 327 327
314 313 312 311 311 311 311 310 310 311 312 312 312 312 311 311 311 311 310 310 310 310 310 310 310 309 309 309 308 308 307 307 309 310 310 309 308 309 310 311 312 313 314 315 316 317 317 318 318 318 317 317 318 318 319 320 320 320 321 321 323 324 325 325 325 325 326 326 326 327 328 328 328 328 329 330 330 329 328 327 327 327 327 327 327
313 312 312 311 310 310 310 310 309 310 311 311 311 311 311 311 310 309 308 308 308 308 308 307 307 307 306 306 306 306 306 306 306 307 308 307 307 307 308 308 309 310 311 312 313 314 315 316 316 316 316 317 317 317 318 319 319 319 319 319 321 323 324 325 325 325 326 326 327 327 327 328 328 328 329 329 329 328 328 328 327 327 326 326 326
312 312 311 310 310 310 309 309 309 309 310 310 310 310 310 309 308 307 307 306 306 306 306 305 305 305 304 304 304 304 304 304 304 305 306 305 305 306 307 307 307 308 309 309 310 311 312 313 312 313 313 314 315 316 317 318 318 319 319 318 319 322 324 325 326 326 326 326 327 327 327 327 328 328 328 329 329 329 328 327 326 326 325 324 325
311 311 311 310 310 309 309 309 308 308 309 310 310 309 308 307 307 307 306 306 306 305 305 305 304 304 304 303 303 303 303 303 303 303 303 303 303 304 304 305 306 307 307 308 308 308 309 309 309 309 310 311 312 314 316 317 317 318 319 319 318 320 322 325 326 326 326 326 326 327 327 327 327 328 328 328 328 328 328 327 326 325 325 325 324
310 310 310 310 309 309 309 308 307 308 309 309 309 308 307 306 306 306 306 306 306 305 305 305 304 304 303 303 303 303 303 303 303 303 302 302 302 302 302 302 303 304 305 305 306 306 307 307 307 307 307 308 309 311 313 315 315 316 317 318 319 319 321 323 324 325 326 326 326 326 327 327 328 328 328 328 328 327 327 327 327 326 326 326 325
310 310 310 309 309 308 308 307 307 307 308 308 307 307 306 306 306 306 306 306 305 305 305 305 304 303 303 303 303 302 302 302 303 303 302 302 301 301 300 300 300 301 302 302 303 304 305 305 305 306 306 306 307 308 310 311 313 314 315 316 317 318 319 321 322 324 326 326 326 325 325 326 326 327 327 327 327 327 327 327 327 327 327 328 327
309 309 309 309 309 308 308 307 307 307 307 307 307 306 305 306 306 305 305 305 305 305 304 304 303 303 303 303 302 302 302 302 302 302 302 302 301 300 300 299 298 299 300 301 301 302 303 303 304 304 304 305 306 306 306 307 309 311 313 314 315 317 318 320 321 323 324 326 326 325 325 325 325 326 326 326 326 326 326 326 326 327 328 328 328
309 309 308 308 308 308 308 307 307 306 306 306 306 305 305 305 305 305 304 303 303 304 304 303 303 302 302 302 302 302 301 301 301 301 301 301 301 300 299 297 297 298 299 299 299 300 300 301 302 303 303 303 304 304 304 305 306 308 310 312 313 315 317 318 320 321 323 324 325 325 325 325 325 325 325 326 326 326 325 326 326 327 328 328 327
309 309 308 307 307 307 307 307 306 306 306 306 305 305 305 304 304 303 303 302 302 303 303 302 302 302 301 301 301 300 299 299 300 301 300 300 300 299 298 296 296 297 298 298 298 299 298 299 300 301 301 302 302 302 303 304 305 306 308 310 311 313 315 317 318 320 321 322 323 324 324 325 324 324 324 325 326 326 326 326 326 327 327 327 327
308 308 308 307 307 307 307 306 306 306 305 305 305 304 304 304 303 303 302 301 301 302 302 302 301 301 301 300 298 297 296 296 297 298 298 298 299 298 296 295 295 296 297 297 298 298 297 297 298 299 300 300 301 301 302 303 304 305 306 308 310 312 314 315 317 318 320 321 322 323 324 324 324 323 322 323 324 324 325 325 326 327 327 326 326
307 307 307 307 307 306 306 306 305 305 305 304 304 304 304 303 303 303 302 301 301 301 301 301 301 300 300 298 296 296 296 296 295 296 296 296 296 296 295 294 295 296 296 296 296 295 295 296 297 298 298 299 300 300 301 301 302 303 304 306 307 309 311 313 314 316 318 320 321 322 323 324 324 324 323 322 322 323 323 324 326 326 326 326 326
306 306 306 307 306 306 306 305 305 305 304 304 304 303 303 303 303 303 302 301 301 300 300 300 300 299 298 297 297 297 297 297 296 295 295 295 295 295 294 294 295 296 296 295 294 293 293 294 296 297 297 297 298 299 299 300 301 302 303 304 305 307 308 309 311 313 315 316 318 320 321 322 323 323 323 323 322 322 322 323 324 325 326 325 325
306 306 306 306 306 306 306 305 305 305 304 304 303 302 302 302 303 302 302 301 300 300 300 299 299 298 297 297 298 297 297 297 296 296 296 295 295 295 295 295 295 295 295 294 293 293 293 294 295 297 296 297 298 298 298 299 300 300 302 303 304 305 306 307 308 309 311 312 313 315 317 319 320 321 323 323 322 322 322 322 322 323 324 325 324
306 306 305 306 306 306 305 305 304 304 304 303 302 302 302 302 302 302 301 301 300 300 299 299 298 298 298 298 298 297 297 297 296 296 296 296 295 295 295 295 294 294 294 294 293 293 293 293 295 296 296 296 297 298 298 298 299 299 300 301 302 303 304 304 305 306 307 308 310 311 313 315 316 318 320 322 322 322 322 322 321 321 323 325 325
305 305 305 305 306 305 305 304 304 303 303 302 302 302 301 301 301 301 301 300 300 299 299 298 298 298 298 298 298 297 297 297 297 297 296 296 295 295 295 294 294 294 294 294 294 293 292 293 293 295 295 295 296 297 298 297 298 298 299 300 301 301 302 302 303 303 304 305 306 307 309 311 313 314 317 320 322 323 323 323 323 321 322 324 324
305 305 304 304 305 305 304 304 303 303 302 302 301 301 301 301 301 301 301 300 300 299 299 299 298 298 298 298 298 297 297 297 297 297 296 296 296 295 295 295 294 294 294 294 293 293 292 292 292 293 294 295 296 297 297 297 297 297 297 298 298 299 300 301 301 302 302 303 304 305 306 307 310 311 313 316 319 321 323 324 324 323 323 323 323
304 304 304 304 304 304 304 303 303 302 302 301 301 301 301 301 300 301 301 300 300 299 299 299 299 299 298 298 298 297 297 297 297 297 297 296 296 296 295 295 295 294 294 294 293 293 292 292 293 293 293 295 296 296 297 298 298 298 297 297 297 298 298 299 300 301 301 302 302 303 304 305 306 308 310 312 315 318 321 323 324 324 323 323 323
304 304 304 304 303 303 303 302 302 301 301 301 301 301 301 300 300 301 301 300 299 299 299 299 299 299 299 298 298 298 297 297 297 297 297 297 296 296 296 295 295 294 294 293 293 293 293 292 293 293 293 294 296 296 297 297 298 298 297 296 296 297 297 298 299 299 300 301 301 301 302 303 304 305 307 310 311 314 317 321 323 323 324 323 323
303 303 303 303 303 303 303 302 301 301 301 301 301 301 300 300 300 300 300 300 299 299 299 299 299 299 299 299 298 298 298 297 297 297 297 297 296 296 296 295 295 294 294 293 293 293 293 293 293 293 293 294 295 296 297 297 297 298 298 297 296 296 296 297 298 298 299 299 300 300 300 301 302 303 305 307 309 311 314 317 321 323 323 323 323
303 303 303 303 302 302 302 302 301 301 301 300 300 300 300 300 300 300 300 299 299 299 299 299 299 299 299 299 299 298 298 298 297 297 297 297 296 296 296 296 295 295 294 294 293 293 293 293 293 293 293 293 294 295 296 297 297 298 298 297 296 296 296 296 297 297 298 298 299 299 299 300 300 301 303 304 306 309 311 314 318 321 323 323 322
303 303 303 303 302 301 301 301 301 301 300 300 300 300 300 300 300 299 300 299 299 299 299 299 299 299 299 300 299 298 298 298 297 297 297 297 296 296 296 296 295 295 294 294 293 293 293 293 293 293 294 293 293 294 295 296 297 298 298 297 296 296 296 296 296 296 297 297 298 298 299 299 300 300 302 303 305 307 309 312 314 318 321 322 321
303 303 303 303 302 301 301 301 301 300 300 300 300 300 300 300 300 299 299 299 299 299 299 299 299 299 299 300 299 298 298 298 298 297 297 297 297 296 296 296 296 295 294 294 294 294 294 293 293 293 294 294 293 293 294 296 297 298 298 297 296 296 296 296 296 296 296 296 297 298 298 299 299 300 301 302 304 305 307 309 311 313 317 320 319
302 303 302 303 302 301 301 301 301 300 300 300 300 300 300 300 299 299 299 299 299 299 299 299 299 299 299 299 299 298 298 298 298 297 297 297 297 296 296 296 296 295 294 294 294 294 294 294 293 293 294 294 294 293 294 295 296 297 297 297 296 295 295 295 295 295 296 296 296 297 298 298 299 300 300 301 303 304 305 307 308 310 313 315 316
303 303 302 302 301 301 301 301 301 300 300 300 300 300 300 300 299 299 299 299 299 299 299 299 299 299 299 299 299 298 298 298 298 297 297 297 297 296 296 296 296 295 295 294 294 294 295 294 293 293 293 294 293 292 293 295 296 296 297 297 296 295 295 295 294 295 295 296 296 296 297 297 298 299 300 300 301 302 303 305 306 307 308 309 310
302 302 301 300 300 300 300 301 301 301 300 300 300 300 300 300 300 299 299 299 299 299 299 299 299 299 299 299 299 298 298 298 298 298 297 297 297 296 296 296 296 295 295 294 294 295 295 295 293 293 293 294 293 292 292 295 296 296 296 297 296 295 295 294 294 294 295 296 296 296 297 297 297 298 299 300 300 301 302 303 304 305 305 305 305
301 300 300 299 299 299 300 300 301 301 301 300 300 300 300 300 300 299 299 299 299 299 299 299 299 299 299 299 299 298 298 298 298 298 297 297 297 296 296 296 296 296 295 295 295 295 295 295 293 293 293 293 293 292 292 294 296 296 296 296 296 296 295 294 293 293 295 296 296 296 297 297 297 297 298 298 299 299 300 300 301 302 302 303 303
300 299 299 299 299 299 299 300 301 301 301 301 300 300 300 300 299 299 299 299 299 298 299 299 299 299 299 299 299 298 298 298 298 297 298 297 297 296 296 296 296 296 295 295 295 295 295 295 293 293 293 293 293 292 292 293 295 296 296 296 296 295 295 294 293 293 294 295 296 296 296 296 296 296 297 297 297 298 298 299 299 300 300 301 302
299 299 299 299 299 298 299 300 301 301 300 300 300 300 300 300 300 299 299 299 300 299 298 298 299 299 299 299 298 298 298 298 298 297 297 297 297 296 296 296 296 296 295 295 295 295 295 295 294 293 293 293 292 292 292 293 295 296 296 296 296 295 294 293 293 293 294 294 295 295 295 295 295 295 295 295 296 296 297 297 298 298 299 300 300
299 299 299 299 299 299 298 299 300 301 300 300 300 300 300 300 300 300 299 299 300 299 298 297 297 299 299 298 298 298 298 297 297 297 297 297 297 296 296 296 296 296 295 295 295 295 295 295 294 293 293 293 293 292 292 292 293 295 295 296 295 295 294 293 293 293 293 293 293 294 294 294 294 294 294 294 294 295 295 296 296 297 297 298 299
Wind_Speed
24 24 21 17 16 15 16 17 16 15 14 12 13 15 15 13 12 11 10 8 8 8 7 8 9 9 10 9 8 8 9 10 10 8 8 9 11 12 13 13 14 15 15 16 16 17 17 17 15 14 14 14 15 17 17 17 18 19 20 20 22 23 24 24 23 23 24 26 26 26 28 30 31 31 31 32 30 28 27 26 24 24 23 20 19
23 22 19 15 13 14 14 17 16 14 14 12 11 13 13 13 12 10 10 10 10 10 10 10 9 9 10 9 9 8 9 10 10 9 10 11 11 12 13 14 14 15 16 17 17 17 17 16 15 15 14 14 17 19 19 18 18 19 20 21 21 22 24 23 23 24 26 28 27 27 29 30 32 33 33 33 31 29 29 29 27 25 24 22 20
23 21 20 17 17 16 14 16 17 16 16 15 12 11 11 10 10 9 8 9 10 10 10 10 10 10 10 9 8 8 9 10 9 9 10 11 12 13 14 14 14 15 16 17 17 17 17 17 15 14 12 12 16 18 18 18 19 20 20 21 22 22 23 23 23 24 26 28 27 26 28 28 30 32 34 35 34 32 31 30 28 26 26 24 23
23 21 21 18 16 15 14 13 15 16 14 13 12 11 11 10 10 9 8 7 7 8 9 9 10 10 10 10 9 9 9 9 9 10 11 11 12 13 14 14 14 15 15 16 17 17 17 17 15 14 13 13 15 16 16 17 18 19 21 21 22 23 24 23 22 23 25 27 26 26 26 24 25 28 31 32 33 33 33 31 29 28 28 26 25
23 21 22 20 16 16 17 13 12 14 14 13 13 13 12 12 10 9 9 9 7 7 8 9 10 10 10 10 10 9 9 9 10 11 11 11 11 12 12 13 14 14 15 16 18 18 18 18 17 17 16 16 16 17 17 17 18 20 21 22 23 24 25 25 24 24 25 26 27 27 24 21 24 27 27 28 29 30 32 32 31 30 29 27 26
21 20 20 20 18 15 15 15 13 13 14 13 13 13 12 11 10 8 9 10 9 8 8 9 9 11 11 10 10 9 8 8 9 10 11 12 13 13 12 12 14 15 15 16 17 17 17 18 18 19 19 19 19 19 19 19 20 21 22 23 23 24 25 26 26 26 26 27 28 30 28 27 28 27 24 24 25 26 29 32 33 31 30 29 28
19 19 18 17 17 13 12 13 12 11 11 10 10 10 8 6 6 7 9 11 11 11 10 10 9 9 10 8 7 7 6 6 6 6 8 10 13 14 13 13 14 14 14 15 15 15 15 16 17 18 20 19 20 20 20 21 21 22 23 23 23 24 25 26 28 28 28 30 30 31 31 32 33 32 29 25 23 23 25 29 32 32 31 32 30
18 18 17 16 15 13 12 10 9 9 9 9 9 7 5 7 11 13 14 15 15 15 14 13 12 9 8 7 5 5 5 5 5 5 6 7 10 11 11 12 12 12 13 14 14 14 14 15 15 17 19 18 19 20 20 20 21 22 22 23 24 25 26 28 29 29 30 32 31 31 31 32 34 36 36 32 27 23 23 25 29 31 32 32 31
17 17 16 15 13 12 11 9 7 7 7 8 6 4 6 10 13 15 16 17 16 17 17 16 15 14 12 10 8 7 6 6 6 7 7 7 8 8 8 9 9 10 11 12 12 12 13 15 15 16 18 17 18 19 20 20 20 22 23 24 26 27 28 29 31 31 31 31 31 31 32 32 33 35 36 35 33 28 25 26 28 30 32 32 31
17 16 15 14 12 11 9 7 4 3 3 3 2 4 7 8 11 11 12 13 13 15 17 18 17 16 15 13 12 11 11 11 11 11 11 10 8 7 7 8 8 9 10 10 10 10 10 12 14 15 16 16 18 19 20 21 21 22 23 25 26 27 28 28 30 31 30 29 29 30 32 33 32 34 35 35 35 33 27 25 26 28 31 31 30
17 17 15 14 11 9 8 6 4 2 3 5 5 4 4 4 5 6 4 4 7 10 14 16 17 17 16 16 15 14 14 15 15 15 15 13 11 10 10 10 9 9 10 10 11 11 11 11 11 12 14 15 17 18 19 20 21 22 23 25 26 27 28 28 29 30 30 29 29 30 32 33 34 35 35 33 34 36 32 27 24 24 26 27 26
17 16 15 13 11 10 8 6 5 5 6 6 5 5 5 5 6 7 8 7 5 2 4 8 13 16 16 16 16 16 16 16 16 16 16 14 13 13 13 12 11 11 11 12 12 12 12 12 12 13 13 14 15 17 18 19 20 22 23 25 27 28 28 28 29 30 31 31 30 30 31 32 34 35 34 33 33 35 34 30 25 22 23 23 21
15 15 13 11 10 9 8 7 7 6 5 5 7 8 8 9 10 9 11 12 12 10 8 4 4 9 13 15 16 16 16 16 15 15 14 14 13 13 13 12 12 12 12 12 12 11 12 13 13 13 13 14 15 16 18 19 21 22 24 27 28 28 28 28 28 30 31 32 31 31 31 32 32 32 32 33 34 32 31 30 27 25 24 23 21
15 14 13 11 11 10 10 9 7 6 8 11 11 9 8 10 10 9 11 13 13 13 11 9 6 2 5 9 12 13 14 13 13 12 11 11 12 12 11 11 11 11 11 12 12 13 13 14 15 15 16 16 16 18 19 20 22 24 26 28 29 29 28 28 28 29 30 31 32 31 31 32 32 31 32 34 34 30 28 29 28 27 26 26 24
15 14 13 12 12 12 12 12 10 9 12 13 10 9 9 10 9 9 11 12 13 14 13 12 10 7 4 1 5 7 8 9 9 9 8 9 9 8 9 10 11 11 12 12 13 15 16 17 18 18 18 19 20 21 22 23 25 27 29 30 31 30 28 28 29 29 29 30 31 31 31 32 32 32 33 34 32 28 27 27 27 27 27 27 26
15 14 14 13 12 11 12 13 12 13 12 10 9 9 10 10 10 11 12 13 14 14 15 15 14 12 10 7 4 3 4 5 6 6 6 7 8 8 8 8 10 11 13 14 15 17 19 20 21 21 21 21 22 23 24 27 29 30 31 32 32 30 28 28 28 27 27 27 27 28 30 32 32 31 32 33 31 27 26 25 26 29 30 27 26
16 15 14 14 14 14 14 14 14 13 11 11 10 10 10 11 12 12 13 14 14 14 14 15 15 14 14 12 9 7 6 4 4 4 4 6 7 8 8 9 11 12 13 15 16 17 17 19 20 21 22 21 22 22 24 26 27 25 24 25 26 25 25 25 25 24 25 25 25 27 29 31 30 28 29 30 29 27 26 26 27 28 29 29 26
16 15 14 14 15 15 14 14 12 11 11 13 13 12 12 11 11 12 13 13 13 12 13 14 14 15 15 14 13 11 9 7 6 6 5 5 6 6 6 7 8 9 10 12 14 14 14 16 19 19 19 19 19 20 20 20 20 19 18 18 19 19 20 21 21 22 23 23 23 24 27 29 27 24 25 26 27 27 26 27 26 26 28 30 29
15 14 13 13 14 14 13 13 11 11 13 14 14 13 13 11 11 11 12 11 11 11 12 13 14 15 15 15 15 14 13 11 9 9 8 8 8 8 7 6 6 7 8 9 11 12 13 14 16 16 16 16 17 18 17 17 18 18 18 18 17 17 18 19 20 21 22 22 22 22 24 26 24 21 21 24 26 26 25 25 24 24 27 30 31
15 14 12 12 13 12 12 11 10 11 12 13 13 13 12 11 10 10 10 9 9 10 10 12 13 14 14 15 15 15 15 13 12 12 11 11 11 11 9 8 7 7 7 8 9 11 12 13 14 15 14 15 17 18 17 17 17 18 18 18 19 18 18 19 21 22 21 20 21 22 23 23 22 21 21 23 24 23 24 24 23 23 25 26 29
15 14 12 11 11 11 11 10 9 10 12 12 12 12 11 10 9 9 9 9 9 9 9 9 11 11 12 14 14 14 15 14 13 13 13 13 13 12 11 9 7 6 6 7 8 9 12 14 15 16 15 14 16 18 18 18 17 17 17 18 19 20 19 18 19 20 19 18 19 20 21 22 21 21 22 22 22 22 23 24 23 24 25 25 28
15 14 13 11 11 12 12 11 11 13 13 13 12 12 11 10 10 9 9 10 9 8 8 8 8 9 10 11 12 13 15 14 14 15 15 14 15 14 12 10 8 7 7 7 7 7 10 12 14 16 16 16 17 18 18 18 18 18 18 18 19 20 20 18 17 18 17 16 18 19 20 20 21 21 22 21 22 23 24 25 24 25 26 27 28
17 15 14 14 13 13 13 12 13 15 16 15 14 13 12 11 10 10 11 11 9 8 7 7 7 9 9 9 10 13 16 17 16 16 16 15 15 15 14 12 11 10 9 9 9 10 11 11 13 15 17 17 18 19 19 18 18 19 19 18 18 19 20 19 17 16 15 15 17 17 17 18 19 20 21 22 23 24 24 25 25 25 27 28 29
19 17 16 15 15 14 13 13 14 15 16 16 15 14 12 11 10 12 14 15 15 14 13 13 14 16 17 15 15 16 19 20 18 17 16 16 16 15 15 15 14 12 10 10 11 11 11 12 13 15 17 18 20 21 21 20 19 20 21 19 17 17 18 18 17 15 14 14 14 14 14 15 17 19 20 22 24 24 25 26 25 25 26 28 29
19 18 16 15 14 13 13 13 13 14 15 15 14 13 13 13 13 15 18 20 20 20 21 22 22 24 25 26 25 24 25 25 23 20 17 16 16 15 15 15 15 14 13 13 12 12 12 13 14 16 18 19 21 21 22 22 22 22 22 20 18 16 16 17 17 15 13 12 13 13 13 13 15 16 18 20 22 23 25 26 26 26 27 28 29
17 17 16 15 14 12 11 11 12 13 15 15 15 13 14 16 18 20 20 20 21 21 22 24 25 26 28 28 29 28 28 28 28 26 24 22 21 20 19 17 16 16 15 15 15 15 16 16 17 18 19 20 20 21 21 23 24 24 22 21 19 18 16 15 15 15 13 11 12 13 13 13 13 14 15 16 18 20 23 25 26 27 28 29 30
17 17 17 15 14 12 12 13 13 14 15 15 14 14 16 19 20 19 18 18 19 19 21 23 25 27 27 28 28 28 28 28 27 28 27 27 27 26 25 23 21 20 20 20 19 18 19 19 19 20 21 21 21 21 20 21 22 23 23 22 21 20 19 16 14 14 13 11 10 11 12 12 12 12 13 14 16 18 20 23 26 28 28 28 29
19 19 17 16 15 15 15 15 16 17 17 15 15 15 18 18 17 16 16 16 15 15 18 21 24 25 26 27 27 26 26 26 25 26 26 27 27 27 27 26 25 25 25 25 24 22 22 20 20 21 22 22 22 23 23 23 22 22 23 23 22 21 21 19 16 14 12 10 10 10 11 11 11 11 12 13 14 16 18 21 24 26 27 27 28
20 19 17 16 17 16 15 15 17 17 16 15 16 17 17 16 14 14 13 12 12 14 17 20 22 24 24 24 24 23 23 22 22 23 24 26 27 27 27 27 27 27 28 29 28 27 26 24 23 23 22 23 23 25 27 27 26 24 23 23 22 20 20 19 18 16 12 9 8 9 9 11 11 11 11 12 13 15 17 19 21 21 23 24 25
20 18 18 19 18 16 16 16 16 16 16 16 17 16 15 14 13 12 12 13 12 15 17 19 21 22 21 20 20 20 20 20 20 21 22 24 25 27 28 29 29 28 28 29 30 30 30 29 28 27 26 25 25 26 27 27 27 26 24 22 20 19 18 16 16 16 14 10 9 8 8 9 10 10 10 11 13 15 17 19 20 20 20 21 22
21 19 18 19 19 17 17 17 16 17 17 18 17 16 15 14 14 14 16 17 16 17 18 19 20 20 19 19 19 20 20 20 19 19 21 22 24 26 28 29 29 28 28 28 29 30 31 31 31 30 30 29 29 29 28 26 26 26 25 22 19 17 16 15 15 15 15 13 11 10 10 9 9 10 10 11 12 15 17 18 20 20 20 20 21
21 20 18 18 18 18 18 17 17 16 16 16 16 16 15 14 15 15 18 20 19 18 18 19 19 19 19 20 22 24 26 25 22 19 20 21 23 25 28 29 29 28 28 28 28 29 31 32 32 32 32 31 31 31 30 28 26 26 25 24 20 17 15 14 13 13 13 13 13 12 12 11 10 10 12 12 13 14 16 18 20 21 22 22 22
22 20 20 19 18 18 17 17 16 15 15 15 15 15 14 14 14 15 17 21 22 20 18 18 18 18 20 23 25 28 31 31 29 25 23 23 25 27 28 28 28 28 29 30 30 30 31 31 32 32 32 33 32 32 32 31 29 26 25 24 22 19 16 14 12 12 11 12 13 14 14 13 11 11 13 14 14 15 15 16 18 20 21 22 23
22 21 21 20 19 18 17 17 16 16 15 14 13 14 15 13 13 14 17 21 23 22 20 18 17 19 22 26 28 30 31 33 32 31 29 28 29 29 29 28 27 28 29 31 32 32 31 31 31 31 32 33 33 34 33 33 32 30 26 24 23 21 19 17 15 13 12 12 12 14 15 15 13 12 13 14 15 15 16 15 15 17 19 21 24
24 23 22 21 20 19 18 18 17 16 15 15 14 16 17 15 13 14 17 20 22 22 21 19 19 21 24 28 30 31 32 33 33 33 33 33 33 32 31 29 28 28 28 30 32 32 31 30 29 30 31 32 33 34 34 34 34 33 29 25 24 23 22 20 18 17 15 14 14 14 14 16 15 13 13 14 15 15 16 16 16 16 18 20 23
25 24 22 21 20 19 19 18 17 16 15 15 16 17 18 15 13 14 16 19 20 22 22 22 23 24 25 27 29 30 31 32 33 34 35 35 35 35 34 32 29 29 29 30 32 33 32 30 28 28 30 31 31 33 35 35 35 35 33 29 26 24 24 24 23 21 19 18 17 16 15 16 16 14 13 14 15 16 17 17 17 17 18 19 21
25 23 21 21 20 20 19 18 17 17 16 16 16 17 17 15 14 14 15 17 19 22 23 24 25 26 26 27 28 29 30 31 32 34 35 36 36 36 36 35 33 32 31 32 33 33 33 31 28 27 27 29 30 31 33 35 36 36 36 34 31 28 26 25 25 24 23 22 20 19 18 17 16 16 14 14 16 17 17 17 18 18 18 18 20
25 23 22 21 20 20 19 18 18 18 16 16 17 17 17 16 14 13 13 16 19 22 22 23 24 25 26 26 28 29 30 30 32 33 34 35 35 36 36 36 36 35 34 34 35 34 34 33 30 27 24 25 27 29 30 33 35 37 38 38 37 34 31 29 27 26 25 24 24 23 21 19 17 17 16 14 15 16 16 17 19 20 20 19 20
25 23 22 21 20 20 20 18 18 17 16 17 17 16 17 16 15 13 13 16 20 21 21 22 22 23 24 26 27 28 29 29 30 31 32 32 33 34 35 36 37 36 35 35 36 37 37 36 33 28 23 22 24 26 28 31 33 35 37 38 38 38 36 34 31 29 27 25 25 26 25 24 22 19 17 16 15 15 16 17 19 21 22 21 21
25 23 22 22 20 20 20 19 18 17 17 16 16 15 16 15 14 13 14 16 19 20 20 21 20 20 22 25 27 27 28 28 28 29 30 31 32 33 34 35 36 36 36 36 37 38 39 38 36 32 25 20 22 24 26 28 31 33 34 36 37 39 38 36 34 32 31 29 27 28 28 29 28 24 20 17 16 14 15 17 18 19 21 23 22
24 22 21 21 19 19 20 20 18 18 17 15 15 16 15 14 13 13 14 16 18 19 19 20 20 18 19 22 25 25 25 26 26 27 28 30 31 32 33 34 36 37 36 37 38 40 41 40 38 35 29 21 20 22 24 26 29 31 32 33 36 37 38 37 35 34 33 32 31 31 31 31 32 31 27 22 19 16 14 16 17 18 21 23 22
24 22 20 19 18 18 21 21 18 17 16 15 16 16 15 15 15 16 16 16 16 16 17 19 19 17 16 18 21 23 23 23 24 25 27 29 30 31 32 34 35 37 37 37 38 40 42 42 40 38 34 26 19 20 22 24 27 29 29 31 33 35 36 37 37 36 35 34 32 31 31 31 32 32 31 27 24 20 16 15 16 18 21 22 21
25 22 20 19 18 20 23 21 18 16 15 15 16 15 15 15 15 15 13 13 13 13 14 16 17 16 13 14 17 20 20 21 22 23 25 28 29 30 31 33 35 37 37 37 39 40 42 43 41 40 39 32 24 20 20 23 26 26 26 28 30 32 34 36 37 37 35 34 32 30 28 27 28 29 30 29 26 23 19 15 14 15 18 20 19
25 22 20 18 18 21 23 21 18 16 15 15 15 15 14 15 14 12 11 12 11 11 12 13 14 15 13 12 13 17 18 18 20 21 23 25 27 28 30 31 34 36 36 36 39 41 43 45 43 41 41 38 30 24 21 21 24 25 25 26 28 31 33 35 35 34 34 32 31 29 26 24 23 24 26 26 25 24 22 18 14 11 13 15 14
24 23 21 19 18 20 23 21 18 17 16 14 14 14 14 15 14 12 11 11 10 10 10 11 11 12 13 12 12 14 16 17 18 19 21 23 25 26 28 30 33 35 36 36 38 40 42 44 44 41 41 40 34 28 23 22 24 25 25 25 27 29 32 34 34 33 31 30 29 27 25 23 21 21 22 22 23 23 22 19 14 7 8 13 14
25 23 21 20 19 20 22 22 19 17 15 14 14 13 13 13 12 11 11 11 10 9 8 8 9 10 11 10 10 12 14 16 17 18 20 21 23 24 26 29 32 34 35 35 37 39 41 43 43 41 41 40 37 30 25 24 26 27 25 24 25 29 31 33 34 33 30 29 28 26 25 24 22 21 20 20 21 21 19 17 13 6 3 9 14
24 22 21 20 20 20 21 21 20 17 15 14 12 11 10 10 11 11 10 8 8 8 8 8 9 10 10 9 9 10 12 14 16 17 18 19 21 22 24 27 30 32 33 34 35 37 39 42 42 39 39 41 39 32 27 27 28 28 25 24 24 28 31 34 35 35 31 28 28 26 25 25 24 22 20 19 19 19 19 19 16 13 10 9 8
23 22 22 22 21 21 21 21 20 17 15 13 11 10 9 9 9 9 8 6 6 6 7 7 8 9 9 9 8 8 10 12 14 15 17 18 18 20 22 25 28 30 31 31 33 35 37 39 40 38 38 41 41 34 28 27 27 26 24 23 23 26 31 35 37 35 31 28 27 26 27 28 27 26 26 25 23 21 19 19 18 16 15 13 10
24 22 22 21 21 21 21 21 20 17 14 13 11 11 11 10 9 9 8 8 8 6 5 5 5 6 8 9 7 7 9 12 13 14 15 17 18 19 21 23 25 28 29 29 30 32 34 37 37 36 37 40 41 36 27 23 24 23 19 19 22 25 29 33 35 33 29 27 28 29 30 31 32 31 31 30 29 26 22 19 18 16 15 13 12
23 22 21 20 20 20 21 21 20 18 15 13 12 12 10 10 9 8 6 7 7 7 6 4 3 3 6 8 8 8 10 11 12 13 14 16 17 18 19 20 23 25 27 27 28 29 32 35 35 33 34 36 39 37 28 20 21 22 18 18 21 24 25 30 33 32 30 31 32 32 32 32 32 32 32 31 31 29 26 23 20 17 15 15 17
24 23 21 20 19 19 20 22 22 19 16 14 12 11 10 9 7 6 6 5 5 5 7 7 4 3 5 8 9 9 11 11 12 13 13 15 16 17 17 19 21 23 25 25 26 27 29 32 33 31 31 32 34 36 33 23 18 19 19 19 20 21 25 29 31 30 31 34 35 34 33 32 31 31 30 30 29 29 28 27 24 21 18 16 16
Wind_Direction
126 131 132 134 137 147 149 143 147 152 152 151 149 154 154 152 162 171 175 185 190 198 213 218 217 224 233 241 247 257 269 280 289 291 282 274 273 277 278 279 282 288 293 293 295 299 302 305 306 307 303 298 294 287 278 273 272 272 272 272 271 272 273 274 274 272 270 267 264 261 258 257 257 258 258 257 256 255 253 249 245 242 244 247 246
132 132 135 143 151 164 159 145 149 152 151 157 151 150 153 150 157 167 174 187 197 205 214 219 222 225 230 233 237 246 258 270 281 289 285 280 278 278 278 279 281 286 291 293 296 299 302 304 306 306 305 303 296 287 283 282 280 277 275 274 274 275 276 276 277 275 273 271 269 266 263 262 259 256 256 258 255 253 251 249 246 243 243 246 245
133 132 135 142 144 154 158 146 146 145 141 146 148 146 152 154 158 162 170 188 204 216 219 221 226 231 235 235 241 249 254 262 267 269 272 275 279 279 278 278 277 280 288 295 298 299 300 298 297 299 299 301 295 289 289 286 282 280 278 280 281 280 279 276 275 274 275 275 272 268 267 268 265 259 255 255 256 256 254 250 245 243 244 247 246
133 135 136 139 142 147 152 146 140 141 141 141 148 153 155 164 172 175 179 188 207 222 226 232 233 236 238 233 236 248 253 258 259 260 264 266 268 272 275 278 279 282 289 296 299 301 299 296 294 293 293 296 295 292 290 286 284 283 282 283 283 282 283 283 279 274 272 271 269 267 268 267 265 263 260 258 257 256 255 252 247 243 244 246 244
133 133 133 142 153 150 150 162 157 151 159 162 165 169 167 172 182 192 195 193 207 220 224 235 238 238 239 234 234 243 251 253 251 253 258 259 259 261 266 274 279 281 285 292 297 299 299 298 295 291 289 291 293 293 292 290 287 285 284 284 283 283 284 286 285 279 273 269 265 263 262 259 260 265 266 263 260 255 254 252 246 241 242 242 240
134 129 130 137 143 144 150 165 166 152 151 155 158 164 167 173 182 197 207 208 215 219 222 233 238 237 236 235 233 237 245 249 252 256 259 263 261 259 262 272 278 278 281 287 291 294 295 295 293 291 291 292 292 292 291 290 287 286 286 284 283 282 282 282 283 281 278 274 268 263 259 257 261 264 263 262 263 260 254 248 243 239 238 238 236
131 126 128 129 132 148 159 154 152 148 144 151 157 157 157 172 202 227 239 238 235 233 233 238 245 242 236 235 230 227 231 231 240 252 263 270 267 266 268 270 277 279 280 283 287 292 292 290 290 292 293 291 291 291 290 289 288 289 288 285 283 281 280 280 280 281 278 275 273 268 264 261 261 260 257 257 259 257 251 247 244 240 236 235 233
126 122 123 122 126 147 157 144 144 150 158 174 174 167 187 228 245 249 247 247 247 245 243 244 250 250 239 232 226 222 222 220 229 242 256 267 268 273 275 271 275 280 281 283 288 294 294 291 292 294 294 294 295 295 293 292 291 290 289 288 286 283 281 280 280 280 278 277 278 273 268 264 261 260 258 255 250 249 249 247 245 239 236 233 231
120 119 116 116 120 128 139 142 141 142 162 184 182 192 230 242 246 248 247 245 244 242 243 244 247 251 248 245 244 241 238 236 242 246 249 257 261 265 268 267 271 274 277 284 290 298 303 300 297 295 295 296 298 298 297 297 296 294 293 292 291 288 286 283 281 281 280 279 280 276 271 265 261 261 259 253 247 246 245 243 241 237 234 233 232
114 115 111 109 110 107 119 127 112 111 155 199 229 254 259 259 257 260 261 254 244 238 238 237 239 244 246 249 252 252 253 252 252 254 253 255 255 255 258 258 260 261 264 269 277 286 292 295 297 298 297 296 297 299 297 296 295 295 294 294 294 293 292 289 285 283 282 279 278 276 271 265 261 259 256 251 245 244 241 234 235 235 233 234 235
114 113 109 107 105 100 110 105 70 34 347 338 333 310 282 278 286 303 314 283 255 245 240 236 235 237 242 248 252 256 259 259 260 263 262 259 255 255 259 259 261 265 263 260 262 268 271 276 286 293 296 298 298 300 299 298 298 297 296 295 296 296 296 294 290 285 281 276 275 273 270 266 263 258 257 255 249 244 238 229 228 233 234 235 236
120 118 113 111 105 96 97 81 54 20 351 353 26 60 74 51 28 28 41 46 36 353 286 253 237 232 235 240 246 253 261 265 269 272 272 271 267 264 262 258 258 260 264 265 264 270 277 278 281 285 289 293 296 299 299 298 297 295 294 294 295 295 295 295 294 290 283 276 271 270 270 268 264 261 260 260 255 247 241 234 225 226 231 230 232
123 121 117 112 104 92 85 78 59 24 14 58 81 85 80 59 52 60 61 52 45 42 33 9 263 239 235 237 242 250 258 266 271 275 278 281 280 278 275 269 265 262 266 273 275 282 290 292 294 295 294 293 293 294 293 294 295 294 294 292 291 293 295 295 294 292 289 281 273 268 268 268 265 264 262 259 255 248 243 240 232 229 232 230 233
122 118 111 101 96 88 82 81 71 52 74 89 86 82 78 65 65 74 69 55 43 38 34 34 31 341 252 242 243 247 253 259 265 273 281 286 287 289 290 288 285 281 283 287 289 292 296 298 298 298 298 296 295 294 292 294 296 295 294 291 291 293 295 296 293 293 292 285 277 270 266 266 267 267 265 260 255 245 238 238 234 232 234 234 238
118 113 105 96 92 91 89 82 76 81 90 92 88 84 77 71 75 81 76 62 47 39 30 27 31 33 32 272 250 254 260 265 274 283 286 289 293 296 298 299 298 297 297 297 296 293 292 291 291 292 295 296 297 298 297 297 296 294 292 291 291 293 294 293 291 290 289 285 279 273 266 265 266 266 265 262 255 245 237 236 235 232 229 230 236
118 112 104 98 93 91 90 82 81 90 94 91 91 87 80 83 88 85 80 67 53 44 34 28 29 34 44 49 37 356 323 306 299 296 285 284 289 291 294 295 293 292 292 293 294 294 293 291 290 290 289 292 297 300 299 296 294 292 292 291 290 291 292 291 289 288 287 284 279 273 267 265 265 266 267 264 254 244 238 237 238 235 228 226 230
118 112 104 97 90 85 84 85 89 96 96 93 90 85 87 95 96 90 85 75 59 47 39 36 38 41 42 42 40 32 20 9 346 324 302 289 288 288 288 287 284 283 283 287 291 293 295 295 293 291 289 292 297 300 300 298 296 295 297 297 296 296 294 290 288 287 285 283 279 273 268 266 265 266 268 266 256 244 238 237 241 242 237 230 227
114 107 101 94 92 92 95 100 101 103 104 98 92 92 98 101 97 94 89 77 65 55 50 49 51 49 43 38 36 35 36 37 29 19 8 340 325 322 317 309 305 303 299 298 300 300 298 296 296 296 297 300 305 307 308 309 310 310 309 308 306 305 302 298 295 291 287 282 278 275 270 265 264 265 266 264 254 243 238 238 242 248 242 233 228
112 107 102 98 102 106 110 113 112 110 107 101 97 99 105 102 96 94 88 80 75 71 67 65 63 57 49 43 38 38 42 46 49 47 39 24 14 12 5 355 346 336 325 318 319 319 310 304 305 307 309 314 317 317 318 322 324 321 316 314 312 309 306 306 303 298 292 284 276 276 272 263 260 262 262 260 252 244 240 240 242 248 244 235 231
114 114 111 109 111 111 112 115 116 115 109 104 102 102 102 102 99 94 86 82 84 83 81 81 76 68 60 51 43 40 40 47 61 61 51 42 35 30 24 18 7 354 341 326 322 318 312 314 318 316 317 321 320 319 319 322 324 322 322 321 318 314 307 303 301 297 294 287 277 274 270 262 257 257 258 255 250 244 242 241 242 247 247 239 233
122 123 119 117 115 109 108 105 108 119 117 109 103 100 100 101 99 93 85 84 90 91 88 87 82 73 64 56 46 39 38 47 67 69 59 51 45 40 35 26 13 6 353 333 324 317 314 320 323 320 318 318 316 315 317 319 320 319 321 323 321 319 313 308 305 301 297 292 284 278 270 261 254 254 254 252 249 244 242 243 243 245 246 240 235
126 125 118 116 113 110 107 97 98 112 116 111 103 98 98 96 91 82 75 76 84 88 85 84 81 70 61 54 45 38 40 53 72 75 64 55 50 48 45 38 28 22 9 349 342 336 329 328 325 319 318 316 315 315 316 318 321 321 321 321 321 321 319 316 311 307 301 292 286 281 274 266 257 252 249 248 248 246 243 244 244 244 244 242 239
130 126 119 117 115 113 110 101 98 105 108 106 101 96 94 91 82 68 63 68 74 80 83 82 75 65 58 52 44 43 48 57 68 73 66 58 52 49 47 46 42 32 19 8 360 353 347 341 331 323 321 319 318 318 319 321 324 326 324 321 319 319 320 320 314 306 300 290 280 276 274 271 265 256 246 242 245 247 244 245 246 245 245 245 244
131 127 123 122 118 115 112 106 102 104 106 102 97 95 91 81 67 61 67 74 74 73 74 70 65 61 58 55 52 51 51 51 55 62 64 58 51 45 42 42 41 36 27 19 11 2 354 346 340 336 333 330 326 322 323 324 326 328 327 323 320 315 314 318 316 307 301 296 287 279 277 275 269 262 253 246 246 247 246 246 247 246 246 247 247
129 129 127 123 118 114 111 109 107 106 105 103 100 96 86 75 69 72 76 74 69 68 67 64 61 59 58 57 55 54 52 50 50 53 56 53 47 40 35 31 30 31 29 24 20 13 6 0 357 355 351 345 338 330 325 324 325 326 326 325 325 320 312 309 310 307 303 301 297 289 283 277 271 265 259 253 248 247 248 248 247 245 244 245 247
132 133 131 124 118 114 112 110 109 109 108 106 104 95 82 79 79 79 79 74 70 68 65 61 58 58 58 57 56 54 54 54 52 52 51 48 44 37 31 26 20 18 19 19 19 17 16 15 12 8 4 358 350 341 331 325 324 325 324 326 328 328 321 310 304 303 301 299 299 294 287 279 275 270 265 262 259 255 255 251 248 246 245 245 247
136 134 131 128 122 115 112 106 102 109 111 107 101 90 83 85 86 87 89 84 76 71 68 64 60 59 59 57 56 55 54 53 52 51 49 46 44 39 35 31 23 17 17 17 16 15 16 17 15 12 9 5 360 352 342 332 327 327 329 329 329 329 327 321 311 305 298 295 299 299 294 286 280 274 269 267 265 263 262 256 249 248 249 248 248
136 133 132 134 129 119 113 106 101 106 111 108 101 94 91 93 94 97 96 86 77 73 73 71 66 64 62 60 58 56 55 54 51 49 46 42 40 37 36 34 29 26 24 24 23 22 21 20 16 14 11 7 4 1 357 349 340 336 335 334 333 330 328 324 319 312 298 288 294 302 304 299 293 288 282 276 270 266 264 261 253 248 248 248 247
138 134 130 134 135 128 122 117 109 107 112 113 107 101 101 101 97 94 86 74 73 78 80 78 74 70 67 64 61 58 55 52 50 48 45 40 36 33 31 31 31 32 32 31 29 28 27 26 22 18 14 10 8 8 8 2 354 347 341 337 336 332 328 324 320 316 305 288 285 299 311 310 303 300 296 290 284 274 267 264 258 250 247 246 243
144 139 129 129 131 128 127 127 117 108 111 115 111 107 106 101 91 84 72 65 77 88 86 81 76 71 67 63 59 53 49 47 47 48 46 41 36 32 30 29 31 36 37 34 30 28 27 26 24 23 19 16 15 14 12 7 2 357 350 344 338 331 326 322 318 316 313 306 292 286 295 299 297 299 297 289 285 280 273 267 261 254 248 244 241
147 145 135 128 126 124 125 128 122 113 113 115 115 112 104 94 85 76 67 67 81 92 87 79 74 70 64 57 53 50 49 50 50 49 47 43 38 33 30 29 32 37 37 34 30 27 25 24 23 22 21 21 21 18 13 9 6 3 358 352 344 334 327 321 316 314 312 311 300 284 277 277 280 289 291 284 279 277 275 271 263 254 249 247 244
147 148 142 134 129 124 123 123 121 119 118 117 116 110 99 91 84 77 68 66 75 87 85 78 72 65 57 55 58 59 57 56 55 51 47 44 39 34 31 30 32 34 34 31 28 25 24 23 22 21 21 21 21 19 15 12 9 7 4 1 353 342 332 325 319 314 307 303 298 287 278 273 270 274 279 279 276 274 272 270 264 255 249 250 250
146 148 147 143 135 128 125 123 121 121 120 119 116 107 99 94 87 80 72 65 67 74 76 73 68 60 56 59 63 63 57 54 54 53 50 46 41 36 33 32 32 33 31 29 27 26 25 23 22 21 21 20 20 19 17 15 13 10 8 7 4 356 347 339 331 320 307 298 292 285 279 275 267 264 270 275 276 274 270 266 262 258 251 249 251
146 145 145 144 139 133 130 128 125 123 120 116 112 104 101 100 93 84 75 64 60 63 66 68 66 62 61 63 63 59 54 51 51 52 51 48 44 40 38 36 35 33 30 27 26 25 25 23 22 21 20 19 20 18 17 16 14 12 10 10 11 9 4 355 347 336 323 311 300 291 287 284 278 268 266 270 275 275 270 262 259 258 255 250 248
145 143 142 142 141 136 134 132 128 127 123 116 109 104 103 105 102 90 75 63 59 61 64 67 68 66 65 63 60 56 53 50 48 48 47 45 43 42 41 39 37 34 32 29 27 26 25 23 22 20 19 19 19 19 17 16 14 13 13 12 12 14 14 9 1 351 342 331 320 310 300 296 294 285 272 269 271 272 270 266 262 259 259 255 248
145 144 143 143 143 138 135 134 130 128 125 117 110 106 104 105 104 92 76 66 63 62 64 67 67 67 66 62 57 54 52 48 45 43 42 41 40 40 41 40 39 37 35 33 31 29 27 24 21 19 18 17 18 19 17 17 16 14 13 14 13 14 16 17 13 6 359 350 339 330 318 308 304 297 283 271 268 268 268 268 265 261 260 256 245
144 144 143 143 143 138 134 133 130 126 123 118 113 110 106 102 99 90 78 71 66 62 65 69 67 65 64 61 56 53 50 47 43 41 40 39 38 37 37 37 36 36 36 34 32 30 28 25 21 16 15 16 17 18 17 17 17 16 14 13 13 12 13 16 17 15 12 7 1 352 340 325 315 308 296 277 266 265 265 264 265 262 260 254 244
143 142 141 141 143 140 136 132 128 124 120 116 114 112 108 102 98 94 86 78 68 61 66 70 66 62 60 58 55 52 48 45 42 40 38 37 36 35 34 34 33 34 34 33 30 28 26 26 23 18 15 14 16 17 16 16 16 16 16 14 12 11 11 10 11 13 14 14 12 9 0 348 335 324 313 294 274 267 263 260 260 261 260 256 246
142 141 140 139 138 140 140 135 128 125 122 118 115 114 111 105 102 104 98 84 69 62 67 71 67 62 59 56 53 50 46 43 40 38 37 36 35 34 33 32 31 32 33 32 29 26 25 25 25 22 17 15 17 17 15 14 14 14 14 14 12 11 11 9 7 6 8 10 12 12 10 5 356 344 330 314 295 278 265 257 257 258 259 257 252
144 143 142 139 136 135 136 131 125 123 124 123 120 117 114 109 107 110 104 85 69 63 67 70 67 63 59 55 51 47 43 41 38 36 35 35 34 32 31 31 30 30 31 31 29 26 25 26 26 26 22 18 18 18 15 13 12 11 12 13 13 13 12 11 9 6 4 5 7 8 8 8 4 358 346 332 318 300 275 260 256 254 253 253 255
145 146 144 143 141 139 135 128 123 123 123 124 123 116 112 109 105 104 98 83 71 65 65 67 65 61 56 53 50 45 41 39 36 33 33 33 31 30 29 29 28 28 29 30 28 26 25 25 26 27 26 22 19 19 17 14 12 11 10 11 13 14 14 12 12 10 7 6 4 4 4 4 3 0 355 346 335 321 295 270 260 252 247 248 252
147 147 145 143 140 141 138 129 125 126 124 124 122 114 110 108 100 97 94 83 73 69 65 64 62 59 54 51 48 43 39 38 35 32 31 32 30 27 26 26 25 25 27 28 27 25 23 24 24 25 26 26 22 18 17 17 15 13 11 11 13 15 14 13 12 11 9 7 4 2 360 359 358 358 356 353 345 335 317 289 267 253 245 243 244
148 146 145 140 135 137 138 132 129 130 127 125 121 113 111 111 101 97 99 93 83 78 73 68 64 61 57 51 46 43 40 37 34 30 28 29 27 23 23 23 23 23 25 26 25 23 22 22 22 23 23 24 24 22 19 19 18 15 12 11 12 15 15 14 13 11 9 6 4 2 359 355 354 356 357 356 352 346 338 319 293 271 253 243 241
149 148 147 143 136 138 140 136 131 130 126 125 123 114 111 110 100 97 109 110 96 87 83 77 67 61 60 58 49 43 40 38 34 27 24 25 24 21 20 21 21 21 23 24 23 22 21 21 21 21 20 20 22 25 24 23 21 18 14 11 12 16 17 15 13 12 9 7 6 4 1 355 352 356 359 0 359 357 354 348 335 303 260 237 232
152 152 151 148 141 139 142 139 134 130 127 126 127 121 113 108 100 95 102 108 104 95 90 84 71 62 59 59 54 45 41 39 33 24 20 22 22 18 18 20 20 20 21 22 22 21 20 20 20 20 18 16 18 21 24 27 24 19 16 13 15 19 20 16 13 11 9 9 8 7 6 3 359 357 358 3 10 11 8 3 356 323 226 197 190
156 156 158 155 146 143 145 142 137 134 133 132 131 126 116 108 104 101 100 100 101 103 100 85 72 66 60 55 55 50 42 38 32 24 20 21 20 17 16 18 20 20 20 21 21 19 19 18 18 18 17 15 15 17 24 29 23 16 14 12 14 19 20 16 13 11 9 10 11 11 13 16 14 10 6 8 16 21 21 20 19 24 130 155 159
159 158 156 153 147 144 146 145 141 137 137 136 131 125 123 120 113 110 108 97 85 91 100 90 73 65 56 48 50 48 41 36 32 26 21 20 20 17 15 18 19 19 20 20 19 18 17 17 17 17 17 17 16 17 24 27 19 11 9 9 12 16 18 16 13 10 9 11 12 15 20 23 25 27 25 23 24 26 30 34 37 46 61 76 97
158 156 153 151 149 148 148 148 145 140 138 138 128 119 126 134 132 127 118 94 75 81 91 87 75 63 52 43 41 41 38 33 28 22 19 20 20 17 16 18 19 18 19 19 17 17 17 17 17 17 18 19 18 18 21 20 14 7 4 7 12 15 16 17 14 10 10 12 15 20 25 27 29 31 33 33 33 33 36 42 45 50 60 68 71
157 157 156 156 157 157 156 154 150 144 142 139 127 115 113 115 126 139 125 92 81 86 94 94 84 67 55 45 37 33 31 24 18 16 17 17 16 16 17 19 18 18 19 18 16 16 17 17 18 19 20 21 20 18 17 15 11 6 2 9 15 13 13 17 16 12 12 16 18 23 28 29 30 31 32 34 35 34 37 43 49 54 59 68 77
154 155 157 158 158 161 163 160 152 146 143 138 129 123 116 106 108 118 106 81 72 77 86 91 86 73 64 53 43 36 29 20 15 15 16 15 14 16 18 19 18 18 19 18 16 16 16 16 18 22 24 23 21 18 17 14 10 7 7 13 14 12 14 18 18 16 19 22 22 26 30 31 32 34 35 36 37 37 37 39 44 53 61 71 80
156 157 157 158 157 158 161 159 153 146 144 143 136 131 129 122 111 100 88 78 71 70 67 57 51 73 72 55 45 38 31 26 22 19 16 14 15 18 20 19 18 18 19 19 18 17 16 15 18 22 25 24 21 18 17 15 12 9 8 8 10 17 22 22 19 21 25 27 27 29 32 34 35 37 39 42 42 43 43 42 42 45 52 63 76